This is the latest recevied weather packets stored in our database for station/object WP3XM. If no packets are shown the sender has not sent any weather packets the latest 10 day(s).
| Time | Temp. | Humidity | Pressure | Rain* | Wind** | Luminosity | Snow |
|---|---|---|---|---|---|---|---|
| 1777804099 | 22.78° C | 94% | 1018.5 hPa | 0 mm | - | 36 W/m² | - |
| 1777803795 | 22.78° C | 95% | 1018.4 hPa | 0 mm | - | 30 W/m² | - |
| 1777803491 | 22.78° C | 95% | 1018.4 hPa | 0 mm | - | 22 W/m² | - |
| 1777803189 | 22.78° C | 95% | 1018.3 hPa | 0 mm | - | 19 W/m² | - |
| 1777802885 | 22.78° C | 95% | 1018.3 hPa | 0 mm | - | 14 W/m² | - |
| 1777802583 | 22.78° C | 95% | 1018.1 hPa | 0 mm | - | 8 W/m² | - |
| 1777802280 | 22.78° C | 95% | 1018.3 hPa | 0 mm | - | 4 W/m² | - |
| 1777801974 | 22.78° C | 95% | 1018.3 hPa | 0 mm | - | 2 W/m² | - |
| 1777801670 | 22.78° C | 95% | 1018.1 hPa | 0 mm | - | 1 W/m² | - |
| 1777801369 | 22.78° C | 95% | 1018.1 hPa | 0 mm | - | 0 W/m² | - |
| 1777801064 | 22.22° C | 95% | 1018.2 hPa | 0 mm | - | 0 W/m² | - |
| 1777800761 | 22.22° C | 95% | 1018 hPa | 0 mm | - | 0 W/m² | - |
| 1777800456 | 22.22° C | 95% | 1018 hPa | 0 mm | - | 0 W/m² | - |
| 1777800154 | 22.22° C | 95% | 1018.2 hPa | 0 mm | - | 0 W/m² | - |
| 1777799853 | 22.78° C | 95% | 1018.3 hPa | 0 mm | - | 0 W/m² | - |
| 1777799552 | 22.78° C | 95% | 1018.2 hPa | 0 mm | - | 0 W/m² | - |
| 1777799247 | 22.78° C | 95% | 1018.1 hPa | 0 mm | - | 0 W/m² | - |
| 1777798943 | 22.22° C | 95% | 1017.9 hPa | 0 mm | - | 0 W/m² | - |
| 1777798639 | 22.78° C | 94% | 1017.9 hPa | 0 mm | - | 0 W/m² | - |
| 1777798336 | 22.78° C | 95% | 1018 hPa | 0 mm | - | 0 W/m² | - |
| 1777798033 | 22.78° C | 94% | 1017.8 hPa | 0 mm | - | 0 W/m² | - |
| 1777797731 | 22.78° C | 94% | 1017.9 hPa | 0 mm | - | 0 W/m² | - |
| 1777797428 | 22.78° C | 94% | 1017.9 hPa | 0 mm | - | 0 W/m² | - |
| 1777797125 | 22.78° C | 94% | 1017.6 hPa | 0 mm | - | 0 W/m² | - |
| 1777796821 | 22.78° C | 94% | 1017.6 hPa | 0 mm | - | 0 W/m² | - |
* Rain latest hour (hover to see other rain measurements)
** Current wind speed in m/s (hover to see current wind gust speed)